Regional Weather Roundup
Issued by NWS

Home | Current Version | Previous Version | Graphics & Text | Print | Product List | Glossary On
Versions: 1 2 3 4 5 6 7 8 9 10 11 12 13 14 15 16 17 18 19 20 21 22 23 24 25 26 27 28 29 30 31 32 33 34 35 36 37 38 39 40 41 42 43 44 45 46 47 48 49 50
000
ASUS43 KDMX 201806
RWRIA

WEATHER ROUNDUP FOR IOWA
NATIONAL WEATHER SERVICE DES MOINES IA
1200 PM CST MON FEB 20 2017

NOTE: "FAIR" INDICATES FEW OR NO CLOUDS BELOW 12,000 FEET WITH NO
SIGNIFICANT WEATHER AND/OR OBSTRUCTIONS TO VISIBILITY.

* - THESE STATIONS ARE NOT NWS STATIONS...THUS NOT UNDER NWS
QUALITY CONTROL.  THEY ALSO DO NOT REPORT WEATHER SUCH
AS PRECIPITATION OR FOG.

IAZ001>003-012>014-020>022-031>034-043>046-201900-
   NORTHWEST IOWA

CITY           SKY/WX    TMP DP  RH WIND       PRES   REMARKS
CARROLL *      CLOUDY    57  57 100 S13       29.74S
CHEROKEE *     CLOUDY    57  57  99 S12       29.71S FOG
DENISON *      CLOUDY    57  57 100 S16G24    29.70S
LE MARS *      CLOUDY    57  57 100 S10       29.70S FOG
SHELDON *      CLOUDY    57  57 100 S14G21    29.68F FOG
SIOUX CITY     CLOUDY    61  57  87 SW10      29.70F
6HR MIN TEMP:  56; 6HR MAX TEMP:  61; 6HR PCP: TRACE;

SPENCER        CLOUDY    54  53  97 S16       29.70F FOG
6HR MIN TEMP:  50; 6HR MAX TEMP:  54; 6HR PCP:  0.02;

STORM LAKE *   CLOUDY    55  55 100 S14       29.72S FOG
$$

IAZ055>058-069>071-079>083-090>094-201900-
   SOUTHWEST IOWA

CITY           SKY/WX    TMP DP  RH WIND       PRES   REMARKS
ATLANTIC *     CLOUDY    59  57  94 S13       29.75S
CLARINDA *     CLOUDY    61  61 100 S13         N/A
COUNCIL BLFS * CLOUDY    59  59 100 SW15      29.74S
CRESTON *      CLOUDY    57  57 100 S17       29.80S
HARLAN  *      CLOUDY    59  57  94 S13G21    29.76F
LAMONI         CLOUDY    59  57  93 S10       29.82S
6HR MIN TEMP:  58; 6HR MAX TEMP:  60; 6HR PCP:  0.10;

RED OAK *      CLOUDY    61  59  94 S14       29.74F
SHENANDOAH *   CLOUDY    61  57  88 S17G23    29.76F
$$

IAZ047>049-059>061-072>074-084-201900-
   CENTRAL IOWA

CITY           SKY/WX    TMP DP  RH WIND       PRES   REMARKS
AMES           LGT RAIN  57  57 100 SE8       29.78F FOG
6HR MIN TEMP:  51; 6HR MAX TEMP:  57; 6HR PCP:  0.92;

ANKENY *       DRIZZLE   59  57  94 S12       29.80F
BOONE *        DRIZZLE   55  55 100 S13       29.76F
CHARITON *     CLOUDY    59  57  94 S17       29.81S
DES MOINES     LGT RAIN  60  57  89 S14       29.79F
6HR MIN TEMP:  58; 6HR MAX TEMP:  62; 6HR PCP:  0.23;

GRINNELL*      RAIN      57  55  91 SE15      29.83F
KNOXVILLE *    CLOUDY    59  57  94 S12       29.81S FOG
MARSHALLTOWN   RAIN      57  55  93 SE14      29.81F FOG
6HR MIN TEMP:  50; 6HR MAX TEMP:  57; 6HR PCP:  0.06;

NEWTON *       CLOUDY    59  55  88 S15G22    29.80F FOG
PELLA *        RAIN      59  57  92 S14G20    29.84F
PERRY *        LGT RAIN  58  57  97 S13       29.76F
$$

IAZ004>006-015-016-023>025-035-036-201900-
   NORTH CENTRAL IOWA

CITY           SKY/WX    TMP DP  RH WIND       PRES   REMARKS
ALGONA *       CLOUDY    55  55 100 S15G22    29.74F FOG
CLARION *      CLOUDY    52  52 100 S16       29.76F FOG
ESTHERVILLE    LGT RAIN  53  53 100 S16       29.70F FOG
6HR MIN TEMP:  47; 6HR MAX TEMP:  53; 6HR PCP:  0.10;

FORT DODGE *   CLOUDY    55  54  94 S12       29.75F
MASON CITY     LGT RAIN  49  49 100 SE14      29.78F FOG
6HR MIN TEMP:  46; 6HR MAX TEMP:  50; 6HR PCP:  0.50;

FOREST CITY *  LGT RAIN  48  48 100 SE13      29.75F
IOWA FALLS *   LGT RAIN  53  51  96 SE10      29.80F
$$

IAZ007>011-017>019-026>030-037>042-050>054-066-201900-
   NORTHEAST IOWA

CITY           SKY/WX    TMP DP  RH WIND       PRES   REMARKS
CEDAR RAPIDS   CLOUDY    60  53  77 S16       29.86F
6HR MIN TEMP:  51; 6HR MAX TEMP:  60;

CHARLES CITY * CLOUDY    50  50 100 SE16      29.81F FOG
CLINTON *      CLOUDY    61  52  72 SE22      29.94F
DECORAH *      FOG       50  50 100 SE12      29.84F VSB 1
DUBUQUE        PTSUNNY   54  50  86 SE16      29.91F FOG
6HR MIN TEMP:  46; 6HR MAX TEMP:  54;

MONTICELLO *   PTSUNNY   59  52  77 SE15G23   29.89F
OELWEIN *      CLOUDY    54  54 100 SE18      29.84F FOG
WATERLOO       CLOUDY    56  51  84 SE14      29.82F
6HR MIN TEMP:  50; 6HR MAX TEMP:  56; 6HR PCP: TRACE;

$$

IAZ064-065-067-068-078-201900-
   EAST CENTRAL IOWA

CITY           SKY/WX    TMP DP  RH WIND       PRES   REMARKS
DAVENPORT      CLOUDY    63  52  67 SE20      29.93F
6HR MIN TEMP:  50; 6HR MAX TEMP:  63;

IOWA CITY      CLOUDY    63  52  67 SE14      29.90F
6HR MIN TEMP:  50; 6HR MAX TEMP:  64;

MUSCATINE *    PTSUNNY   64  52  63 S21G28    29.91F
QUAD CITIES    CLOUDY    64  51  62 SE17G26   29.94F
6HR MIN TEMP:  50; 6HR MAX TEMP:  65;

$$

IAZ062-063-075>077-085>089-095>099-201900-
   SOUTHEAST IOWA

CITY           SKY/WX    TMP DP  RH WIND       PRES   REMARKS
BURLINGTON     CLOUDY    65  53  65 S13       29.92F
6HR MIN TEMP:  52; 6HR MAX TEMP:  65;

FAIRFIELD *    CLOUDY    64  52  63 S18       29.87F
KEOKUK *       PTSUNNY   68  54  60 SE9       29.90F
OTTUMWA        LGT RAIN  61  57  87 SE12      29.84F
6HR MIN TEMP:  56; 6HR MAX TEMP:  64; 6HR PCP:  0.02;

WASHINGTON *   PTSUNNY   63  54  72 S20G26    29.89F HAZE
$$

ABBREVIATIONS USED IN REMARKS
   TC - TEMPERATURES IN CELSIUS
  WCI - WIND CHILL INDEX
   HX - HEAT INDEX
  VSB - VISIBILITY
$$





USA.gov is the U.S. government's official web portal to all federal, state and local government web resources and services.